Simultaneous Nadir Overpasses (SNOs) Predictions

Prediction of SNOs between NOAA-19 and TERRA Satellite Orbit:

Table of predicted SNOs for the next 14.0 days since TLE Epoch: 9/26/2014
Index Date (NOAA-19) Time (NOAA-19) Lat,Lon (NOAA-19) SZA (NOAA-19 ) Date (TERRA) Time (TERRA) Lat,Lon (TERRA) SZA (TERRA ) Distance(km) Time Diff (sec)
1 09/28/2014 13:44:42 -70.98, 155.87 106.95 09/28/2014 13:45:24 -70.98, 155.80 106.94 2.41 42
2 09/28/2014 14:35:48 70.88, -36.74 72.98 09/28/2014 14:34:51 70.88, -36.70 72.97 1.37 57
3 09/30/2014 18:28:35 -71.40, 84.21 105.68 09/30/2014 18:29:46 -71.25, 85.12 105.80 36.51 71
4 09/30/2014 19:19:34 70.93,-107.75 73.89 09/30/2014 19:19:17 70.94,-107.73 73.89 0.66 17
5 10/03/2014 00:03:20 71.00,-178.78 74.81 10/03/2014 00:03:47 70.99,-178.78 74.80 1.28 27
6 10/03/2014 00:54:13 -70.89, -11.31 105.29 10/03/2014 00:53:17 -70.90, -11.28 105.28 2.00 56
7 10/05/2014 04:47:08 71.19, 109.99 75.84 10/05/2014 04:48:19 71.15, 110.33 75.83 12.83 71
8 10/05/2014 05:37:59 -70.97, -82.36 104.35 10/05/2014 05:37:51 -70.96, -82.33 104.36 1.51 8
9 10/07/2014 10:21:44 -71.02,-153.35 103.46 10/07/2014 10:22:29 -71.02,-153.41 103.46 2.33 45
10 10/07/2014 11:12:50 70.90, 14.07 76.45 10/07/2014 11:11:56 70.92, 14.08 76.46 2.41 54
11 10/09/2014 15:56:36 71.01, -57.02 77.39 10/09/2014 15:56:38 70.98, -57.01 77.36 3.35 2
